TimeCST,TemperatureF,Dew PointF,Humidity,Sea Level PressureIn,VisibilityMPH,Wind Direction,Wind SpeedMPH,Gust SpeedMPH,PrecipitationIn,Events,Conditions,WindDirDegrees,DateUTC
12:54 AM,16.0,10.9,81,30.46,10.0,Calm,Calm,-,N/A,,Clear,0,2013-01-15 06:54:00
1:54 AM,15.1,10.9,84,30.45,10.0,Calm,Calm,-,N/A,,Clear,0,2013-01-15 07:54:00
2:54 AM,14.0,9.0,80,30.44,10.0,Calm,Calm,-,N/A,,Clear,0,2013-01-15 08:54:00
3:54 AM,14.0,10.0,84,30.43,10.0,Calm,Calm,-,N/A,,Clear,0,2013-01-15 09:54:00
4:54 AM,12.9,9.0,84,30.40,10.0,Calm,Calm,-,N/A,,Clear,0,2013-01-15 10:54:00
5:54 AM,12.9,9.0,84,30.41,10.0,Calm,Calm,-,N/A,,Clear,0,2013-01-15 11:54:00
6:54 AM,12.0,8.1,84,30.44,10.0,Calm,Calm,-,N/A,,Partly Cloudy,0,2013-01-15 12:54:00
7:54 AM,15.1,9.0,77,30.45,10.0,Calm,Calm,-,N/A,,Mostly Cloudy,0,2013-01-15 13:54:00
8:54 AM,21.0,16.0,81,30.43,10.0,NE,5.8,-,N/A,,Mostly Cloudy,40,2013-01-15 14:54:00
9:54 AM,23.0,16.0,74,30.39,10.0,ENE,9.2,-,N/A,,Mostly Cloudy,60,2013-01-15 15:54:00
10:54 AM,25.0,15.1,66,30.40,10.0,NNE,4.6,-,N/A,,Overcast,20,2013-01-15 16:54:00
11:54 AM,26.1,14.0,60,30.38,10.0,Calm,Calm,-,N/A,,Partly Cloudy,0,2013-01-15 17:54:00
12:54 PM,27.0,15.1,61,30.33,10.0,NE,4.6,-,N/A,,Overcast,40,2013-01-15 18:54:00
1:54 PM,28.9,15.1,56,30.32,10.0,NE,4.6,-,N/A,,Overcast,50,2013-01-15 19:54:00
2:54 PM,30.0,16.0,56,30.30,10.0,North,5.8,-,N/A,,Overcast,360,2013-01-15 20:54:00
3:54 PM,28.9,17.1,61,30.29,10.0,North,5.8,-,N/A,,Overcast,360,2013-01-15 21:54:00
4:54 PM,28.9,17.1,61,30.27,10.0,North,8.1,-,N/A,,Overcast,10,2013-01-15 22:54:00
5:54 PM,28.9,19.0,67,30.26,10.0,NNE,8.1,-,N/A,,Overcast,30,2013-01-15 23:54:00
6:54 PM,28.0,19.0,69,30.26,10.0,NNE,4.6,-,N/A,,Mostly Cloudy,30,2013-01-16 00:54:00
7:54 PM,28.0,18.0,66,30.25,10.0,NNE,3.5,-,N/A,,Overcast,20,2013-01-16 01:54:00
8:54 PM,28.0,19.0,69,30.25,10.0,Calm,Calm,-,N/A,,Overcast,0,2013-01-16 02:54:00
9:54 PM,28.0,19.0,69,30.22,10.0,North,3.5,-,N/A,,Overcast,350,2013-01-16 03:54:00
10:54 PM,28.0,19.0,69,30.20,10.0,Calm,Calm,-,N/A,,Overcast,0,2013-01-16 04:54:00
11:54 PM,23.0,19.0,85,30.20,10.0,WSW,4.6,-,N/A,,Partly Cloudy,250,2013-01-16 05:54:00